ITARNLAS2 Weather Reports


time (UTC)temp
F
wind
direction
speed
knots
gust
knots
rain 1hr
in
rain 24hr
in
rain mn
in
humidity
%
barometer
mb
20260504184556 51 0 0.0 2.6 0.54 0.81 0.81 100 1011.3
20260504183056 51 0 0.0 2.6 0.60 0.74 0.74 100 1011.6
20260504181603 51 0 0.9 4.3 0.46 0.53 0.53 100 1011.3
20260504180057 52 202 1.7 4.3 0.36 0.41 0.41 100 1011.4
20260504174557 53 134 0.9 4.3 0.21 0.26 0.26 100 1011.6
20260504173057 53 140 0.0 7.8 0.07 0.13 0.13 100 1011.4
20260504171556 53 121 0.9 6.1 0.01 0.07 0.07 100 1011.3
20260504110105 58 272 0.9 3.5 0.00 0.05 0.05 100 1013.4
20260504081605 56 123 0.9 4.3 0.00 0.00 0.00 100 1013.8
20260504044556 54 167 0.9 6.1 0.00 0.00 0.00 100 1012.9
20260504043104 53 197 1.7 6.1 0.00 0.00 0.00 100 1012.6
20260504041554 53 182 0.9 7.8 0.00 0.00 0.00 100 1012.7
20260504040132 53 153 1.7 7.0 0.00 0.00 0.00 100 1012.7
20260504034601 53 96 2.6 6.1 0.00 0.00 0.00 100 1012.8
20260504033056 53 90 2.6 7.8 0.00 0.00 0.00 100 1012.8
20260504031606 53 0 1.7 8.7 0.00 0.00 0.00 100 1013.1
20260504030058 53 117 0.9 11.3 0.00 0.00 0.00 100 1013.2
20260504024603 53 157 4.3 13.0 0.00 0.00 0.00 100 1013.4
20260504023058 53 91 3.5 11.3 0.00 0.00 0.00 100 1013.3
20260504021557 53 204 3.5 11.3 0.00 0.00 0.00 100 1013.5
20260504020109 53 183 2.6 8.7 0.00 0.00 0.00 100 1013.7
20260504014556 53 233 2.6 12.2 0.00 0.00 0.00 100 1013.6
20260504013053 52 81 3.5 13.0 0.00 0.00 0.00 100 1013.5
20260504011553 52 81 0.9 9.6 0.00 0.00 0.00 100 1013.6
20260504010056 52 113 4.3 12.2 0.00 0.00 0.00 100 1013.6
20260504004555 52 138 4.3 13.0 0.00 0.00 0.00 100 1013.8
20260504003057 52 148 1.7 9.6 0.00 0.00 0.00 100 1013.7
20260504001556 52 74 4.3 12.2 0.00 0.00 0.00 100 1013.9
20260504000101 52 264 5.2 14.8 0.00 0.00 0.00 100 1014.1
20260503234624 52 17 4.3 16.5 0.00 0.00 0.00 100 1014.2
20260503233058 51 77 6.1 14.8 0.00 0.00 0.00 100 1014.2
20260503231552 52 116 5.2 15.6 0.00 0.00 0.00 100 1014.1
20260503230056 52 76 4.3 13.0 0.00 0.00 0.00 100 1014.0
20260503224553 51 151 7.0 17.4 0.00 0.00 0.00 100 1014.2
20260503223056 52 11 4.3 13.0 0.00 0.00 0.00 100 1014.3
20260503221606 52 211 3.5 18.2 0.00 0.00 0.00 100 1014.6
20260503220059 52 71 5.2 17.4 0.00 0.00 0.00 100 1014.5
20260503214556 52 207 5.2 18.2 0.00 0.00 0.00 100 1014.4
20260503213054 52 258 6.1 20.0 0.00 0.00 0.00 100 1014.4
20260503211555 52 96 6.1 16.5 0.00 0.00 0.00 100 1014.3
20260503210057 52 140 3.5 23.5 0.00 0.00 0.00 100 1014.5
20260503204557 52 115 5.2 17.4 0.00 0.00 0.00 100 1014.4
20260503203057 53 180 3.5 16.5 0.00 0.00 0.00 100 1014.4
20260503201553 53 148 3.5 16.5 0.00 0.00 0.00 100 1014.1
20260503200057 53 123 6.1 14.8 0.00 0.00 0.00 100 1014.3
20260503194600 53 136 5.2 13.0 0.00 0.00 0.00 100 1014.1
20260503193053 53 133 4.3 13.9 0.00 0.00 0.00 100 1014.0
20260503191555 53 72 3.5 13.9 0.00 0.00 0.00 100 1014.1
20260503190055 53 92 4.3 17.4 0.00 0.00 0.00 100 1014.1